Location: Unspecified
(0.0000°N, 0.0000°E)
Time: 11:39:44
(UTC+00:00)

OBJECT M - Pass Details

Date: 20 February 2026
Orbit: 539 x 546 km, 97.4° (Epoch: 8 March)

Event Time Altitude Azimuth Distance (km) Brightness Sun altitude
Rises 05:18:21 0° 204° (SSW) 2,712 ? -13.6°
Reaches altitude 10° 05:21:40 10° 235° (SW) 1,815 ? -12.8°
Enters shadow 05:21:51 10° 237° (WSW) 1,789 ? -12.7°
